Weather History for Tyler, TX

Change the Weather History Date:

Tuesday, March 27, 2012

  Actual Average Record
Temperature  
Mean Temperature 70 °F 59 °F  
Max Temperature 81 °F 69 °F 87 °F (1939)
Min Temperature 59 °F 49 °F 24 °F (1955)
Degree Days  
Heating Degree Days 0 7  
Month to date heating degree days 79 247  
Since 1 July heating degree days 1644 2139  
Cooling Degree Days 5 1  
Month to date cooling degree days 81 15  
Year to date cooling degree days 103 27  
Growing Degree Days 20 (Base 50)    
Moisture  
Dew Point 56 °F    
Average Humidity 63    
Maximum Humidity 87    
Minimum Humidity 39    
Precipitation  
Precipitation 0.00 in 0.12 in 1.92 in (1977)
Month to date precipitation 6.18 3.68  
Year to date precipitation 12.33 10.55  
Snow  
Snow 0.00 in - - ()
Month to date snowfall 0.0  
Since 1 July snowfall 0.0  
Snow Depth 0.00 in    
Sea Level Pressure  
Sea Level Pressure 30.04 in    
Wind  
Wind Speed 7 mph (South)    
Max Wind Speed 18 mph    
Max Gust Speed 23 mph    
Visibility 10 miles    
Events      
T = Trace of Precipitation, MM = Missing Value Source: NWS Daily Summary

Daily Weather History Graph

Daily Weather History Graph

Search for Another Location

Airport:

Trip Planner

Search our weather history database for the weather conditions in past years. The results will help you decide how hot, cold, wet, or windy it might be!

Date:

Astronomy

Mar. 27, 2012 Rise Set
Actual Time 7:15 AM CDT 7:38 PM CDT
Civil Twilight 6:51 AM CDT 8:03 PM CDT
Nautical Twilight 6:22 AM CDT 8:31 PM CDT
Astronomical Twilight 5:53 AM CDT 9:01 PM CDT
Moon 10:03 AM CDT (3/27) No Moon Set
Length of Visible Light 13h 12m
Length of Day
12h 22m
Waxing Crescent, 22% of the Moon is Illuminated
Mar 27
Waxing Crescent
Mar 30
First Quarter
Apr 6
Full
Apr 13
Last Quarter
Apr 21
New

Hourly Weather History & Observations

Time (CDT) Temp. Heat Index Dew Point Humidity Pressure Visibility Wind Dir Wind Speed Gust Speed Precip Events Conditions
12:53 AM 66.9 °F - 57.0 °F 70% 30.01 in 10.0 mi South 6.9 mph - N/A   Clear
1:53 AM 64.0 °F - 57.0 °F 78% 30.01 in 10.0 mi Calm Calm - N/A   Clear
2:53 AM 62.1 °F - 55.9 °F 80% 30.02 in 10.0 mi Calm Calm - N/A   Clear
3:53 AM 61.0 °F - 55.9 °F 83% 30.01 in 10.0 mi SSE 5.8 mph - N/A   Clear
4:53 AM 60.1 °F - 55.9 °F 86% 30.01 in 10.0 mi South 4.6 mph - N/A   Clear
5:53 AM 60.1 °F - 55.9 °F 86% 30.02 in 10.0 mi SSE 5.8 mph - N/A   Clear
6:53 AM 59.0 °F - 55.0 °F 87% 30.05 in 10.0 mi SSE 3.5 mph - N/A   Clear
7:53 AM 59.0 °F - 55.9 °F 90% 30.06 in 9.0 mi SSE 3.5 mph - N/A   Clear
8:53 AM 63.0 °F - 57.9 °F 84% 30.08 in 8.0 mi SSE 3.5 mph - N/A   Clear
9:53 AM 69.1 °F - 57.9 °F 68% 30.09 in 10.0 mi South 5.8 mph - N/A   Clear
10:53 AM 73.0 °F - 57.0 °F 57% 30.09 in 10.0 mi South 8.1 mph - N/A   Clear
11:53 AM 77.0 °F - 55.9 °F 48% 30.09 in 10.0 mi SSW 13.8 mph - N/A   Clear
12:53 PM 78.1 °F - 57.9 °F 50% 30.07 in 10.0 mi South 13.8 mph 19.6 mph N/A   Clear
1:53 PM 80.1 °F 80.2 °F 55.9 °F 43% 30.06 in 10.0 mi SSE 11.5 mph - N/A   Clear
2:53 PM 80.1 °F 80.0 °F 54.0 °F 40% 30.04 in 10.0 mi South 10.4 mph 19.6 mph N/A   Clear
3:53 PM 79.0 °F - 55.9 °F 45% 30.03 in 10.0 mi SSE 11.5 mph 17.3 mph N/A   Scattered Clouds
4:53 PM 80.1 °F 80.0 °F 54.0 °F 40% 30.02 in 10.0 mi South 11.5 mph - N/A   Partly Cloudy
5:53 PM 79.0 °F - 55.9 °F 45% 30.01 in 10.0 mi SW 6.9 mph - N/A   Clear
6:53 PM 78.1 °F - 54.0 °F 43% 30.01 in 10.0 mi SSW 9.2 mph - N/A   Clear
7:53 PM 71.1 °F - 54.0 °F 55% 30.01 in 10.0 mi SSE 5.8 mph - N/A   Clear
8:53 PM 68.0 °F - 55.0 °F 63% 30.02 in 10.0 mi SSE 4.6 mph - N/A   Clear
9:53 PM 64.9 °F - 55.0 °F 70% 30.04 in 10.0 mi SE 4.6 mph - N/A   Clear
10:53 PM 64.0 °F - 55.9 °F 75% 30.03 in 10.0 mi SSE 6.9 mph - N/A   Clear
11:53 PM 66.0 °F - 55.9 °F 70% 30.03 in 10.0 mi South 9.2 mph - N/A   Clear